Weather History for Cut Bank, MT

Change the Weather History Date:

Wednesday, February 6, 2013

  Actual Average Record
Temperature  
Mean Temperature 35 °F 23 °F  
Max Temperature 45 °F 34 °F 66 °F (1961)
Min Temperature 24 °F 12 °F -35 °F (2014)
Degree Days  
Heating Degree Days 30 42  
Month to date heating degree days 151 252  
Since 1 July heating degree days 4894 5170  
Cooling Degree Days 0 0  
Month to date cooling degree days 0 0  
Year to date cooling degree days 0 0  
Moisture  
Dew Point 21 °F    
Average Humidity 55    
Maximum Humidity 78    
Minimum Humidity 31    
Precipitation  
Precipitation 0.00 in 0.01 in 0.35 in (1915)
Month to date precipitation 0.00 0.04  
Year to date precipitation 0.42 0.24  
Snow  
Snow 0.00 in - - ()
Snow Depth 0.00 in    
Sea Level Pressure  
Sea Level Pressure 29.87 in    
Wind  
Wind Speed 21 mph (West)    
Max Wind Speed 38 mph    
Max Gust Speed 45 mph    
Visibility 10 miles    
Events      
T = Trace of Precipitation, MM = Missing Value Source: NWS Daily Summary

Daily Weather History Graph

Daily Weather History Graph

Search for Another Location

Airport:

Trip Planner

Search our weather history database for the weather conditions in past years. The results will help you decide how hot, cold, wet, or windy it might be!

Date:

Astronomy

Feb. 06, 2013 Rise Set
Actual Time 7:51 AM MST 5:36 PM MST
Civil Twilight 7:18 AM MST 6:09 PM MST
Nautical Twilight 6:40 AM MST 6:47 PM MST
Astronomical Twilight 6:04 AM MST 7:23 PM MST
Moon 4:48 AM MST (2/6) 1:49 PM MST (2/6)
Length of Visible Light 10h 51m
Length of Day
9h 45m
Waning Crescent, 16% of the Moon is Illuminated
Feb 6
Waning Crescent
Feb 10
New
Feb 17
First Quarter
Feb 25
Full
Mar 4
Last Quarter

Hourly Weather History & Observations

Time (MST) Temp. Windchill Dew Point Humidity Pressure Visibility Wind Dir Wind Speed Gust Speed Precip Events Conditions
12:56 AM 32.0 °F 20.8 °F 24.1 °F 73% 29.72 in 10.0 mi WSW 17.3 mph - N/A   Clear
1:56 AM 32.0 °F 20.8 °F 24.1 °F 73% 29.73 in 10.0 mi WSW 17.3 mph - N/A   Clear
2:56 AM 33.8 °F 22.2 °F 24.8 °F 70% 29.71 in 10.0 mi West 20.7 mph - N/A   Clear
3:56 AM 33.1 °F 21.9 °F 24.1 °F 70% 29.75 in 10.0 mi West 18.4 mph - N/A   Clear
4:56 AM 30.9 °F 20.2 °F 24.1 °F 76% 29.79 in 10.0 mi WSW 15.0 mph - N/A   Clear
5:56 AM 32.0 °F 21.2 °F 24.8 °F 75% 29.75 in 10.0 mi West 16.1 mph - N/A   Clear
6:56 AM 32.0 °F 21.2 °F 21.9 °F 66% 29.81 in 10.0 mi West 16.1 mph - N/A   Clear
7:56 AM 30.0 °F 20.0 °F 21.0 °F 69% 29.82 in 10.0 mi WSW 12.7 mph - N/A   Clear
8:56 AM 30.9 °F 18.4 °F 21.9 °F 69% 29.85 in 10.0 mi WSW 20.7 mph 24.2 mph N/A   Clear
9:56 AM 39.9 °F 30.2 °F 26.1 °F 58% 29.83 in 10.0 mi SW 20.7 mph - N/A   Clear
10:56 AM 43.0 °F 32.7 °F 23.0 °F 45% 29.83 in 10.0 mi WSW 28.8 mph 35.7 mph N/A   Clear
11:56 AM 39.9 °F 28.8 °F 21.9 °F 49% 29.87 in 10.0 mi West 27.6 mph 36.8 mph N/A   Clear
12:56 PM 43.0 °F 32.4 °F 19.0 °F 38% 29.84 in 10.0 mi West 31.1 mph 42.6 mph N/A   Clear
1:56 PM 44.1 °F 33.2 °F 17.1 °F 34% 29.85 in 10.0 mi West 35.7 mph 42.6 mph N/A   Clear
2:56 PM 45.0 °F 35.4 °F 16.0 °F 31% 29.86 in 10.0 mi West 28.8 mph 39.1 mph N/A   Clear
3:56 PM 43.0 °F 33.1 °F 19.0 °F 38% 29.89 in 10.0 mi West 26.5 mph 36.8 mph N/A   Clear
4:56 PM 39.0 °F 27.8 °F 19.9 °F 46% 29.93 in 10.0 mi West 26.5 mph 34.5 mph N/A   Clear
5:56 PM 33.1 °F 21.9 °F 21.0 °F 61% 29.97 in 10.0 mi West 18.4 mph - N/A   Clear
6:56 PM 32.0 °F 19.8 °F 21.0 °F 64% 29.99 in 10.0 mi West 20.7 mph - N/A   Clear
7:56 PM 33.1 °F 20.9 °F 21.0 °F 61% 30.00 in 10.0 mi West 21.9 mph 28.8 mph N/A   Clear
8:56 PM 32.0 °F 19.8 °F 19.9 °F 61% 30.00 in 10.0 mi West 20.7 mph - N/A   Clear
9:56 PM 33.1 °F 22.2 °F 19.0 °F 56% 29.99 in 10.0 mi West 17.3 mph - N/A   Clear
10:56 PM 24.1 °F 14.4 °F 16.0 °F 71% 30.02 in 10.0 mi NW 9.2 mph - N/A   Clear
11:56 PM 28.9 °F 19.2 °F 18.0 °F 64% 30.01 in 10.0 mi West 11.5 mph - N/A   Clear